Regional Weather Roundup
Issued by NWS

Home | Current Version | Previous Version | Text Only | Print | Product List | Glossary Off
Versions: 1 2 3 4 5 6 7 8 9 10 11 12 13 14 15 16 17 18 19 20 21 22 23 24 25 26 27 28 29 30 31 32 33 34 35 36 37 38 39 40 41 42 43 44 45 46 47 48 49 50

000
ASUS44 KOUN 270210
RWROK

WEATHER ROUNDUP FOR OKLAHOMA
NATIONAL WEATHER SERVICE NORMAN OK
800 PM CST WED NOV 26 2014

NOTE: "FAIR" INDICATES FEW OR NO CLOUDS BELOW 12,000 FEET WITH NO
      SIGNIFICANT WEATHER AND/OR OBSTRUCTIONS TO VISIBILITY.

OKZ001>007-009>012-014-015-017-270300-
NORTHWEST OKLAHOMA AND THE PANHANDLE

CITY           SKY/WX    TMP DP  RH WIND       PRES   REMARKS
GAGE           CLEAR     33  17  51 N9        30.37R WCI  25
ENID/WOODRING  PTCLDY    37  25  60 N9        30.36R WCI  31
$$

OKZ016-021>023-033>039-044-045-270300-
SOUTHWEST OKLAHOMA

CITY           SKY/WX    TMP DP  RH WIND       PRES   REMARKS
LAWTON/REGL    CLEAR     46  28  49 N8        30.36R
LAWTON/FT SILL CLEAR     42  27  56 N6        30.35R
FREDERICK      FAIR      45  32  60 N13       30.32R
CLINTON        CLEAR     43  22  43 N6        30.37R
HOBART         CLEAR     40  27  59 N8        30.36R WCI  34
ALTUS AFB      CLEAR     39  30  70 N12       30.36R WCI  32
$$

OKZ018>020-024>031-270300-
CENTRAL OKLAHOMA

CITY           SKY/WX    TMP DP  RH WIND       PRES   REMARKS
OKLAHOMA CITY  PTCLDY    44  22  41 N17G26    30.34R
OKC/WILEY POST CLEAR     42  23  46 N14       30.36R
OKC/TINKER AFB CLEAR     42  23  46 N14       30.34R
STILLWATER     CLEAR     42  24  49 N13G21    30.35R
GUTHRIE        CLEAR     40  23  50 VRB3      30.36R
$$

OKZ008-013-054>072-270300-
NORTHEAST OKLAHOMA

CITY           SKY/WX    TMP DP  RH WIND       PRES   REMARKS
TULSA          PTCLDY    41  26  55 NW10      30.33R
TULSA/JONES    CLEAR     43  25  49 N6        30.34R
PONCA CITY     PTCLDY    39  24  55 N12       30.37R WCI  32
BARTLESVILLE   CLEAR     38  25  59 MISG      30.36R
MUSKOGEE       CLEAR     42  25  50 NW13      30.33R
$$

OKZ032-040>043-046>053-073>077-270300-
SOUTH CENTRAL/SOUTHEAST OKLAHOMA

CITY           SKY/WX    TMP DP  RH WIND       PRES   REMARKS
ARDMORE/DWNTWN CLEAR     50  28  43 N3        30.33R
MCALESTER      PTCLDY    48  26  42 NW12      30.32R
$$




USA.gov is the U.S. government's official web portal to all federal, state and local government web resources and services.